This demonstration page uses our WeatherBlox Daily Observations layout. Learn more.

Left ArrowRight Arrow

40.92945, -100.16068

Hourly Observations for October 17, 2018

Temp ( °F °C ) Dew Point ( °F °C ) Humidity (%) Winds ( mph kmh ) Pressure ( in mb ) Visibility ( mi km ) Precip ( " mm )
12:35 am 00:35 Clear 39 4 34 1 81 81 WNW 6 9 30.42 1030 10 16.0934 0 0
12:55 am 00:55 Clear 38 3.6 34 0.9 83 83 NW 7 11 30.45 1031 10 16.0934 0 0
1:15 am 01:15 Clear 37 2.7 33 0.5 86 86 NW 7 11 30.45 1031 10 16.0934 0 0
1:35 am 01:35 Clear 37 3 33 0.8 86 86 WNW 8 13 30.48 1032 10 16.0934 0 0
1:55 am 01:55 Clear 37 2.6 33 0.5 86 86 WNW 5 7 30.48 1032 10 16.0934 0 0
2:15 am 02:15 Clear 37 2.8 33 0.7 86 86 WNW 6 9 30.48 1032 10 16.0934 0 0
2:35 am 02:35 Clear 36 2.2 33 0.3 87 87 WNW 5 7 30.48 1032 10 16.0934 0 0
2:55 am 02:55 Clear 36 2.1 33 0.5 89 89 WNW 6 9 30.48 1032 10 16.0934 0 0
3:15 am 03:15 Clear 37 2.5 33 0.6 87 87 WNW 7 11 30.48 1032 10 16.0934 0 0
3:35 am 03:35 Clear 37 2.6 33 0.7 87 87 WNW 8 13 30.48 1032 10 16.0934 0 0
3:55 am 03:55 Clear 37 2.7 33 0.5 86 86 WNW 8 13 30.48 1032 10 16.0934 0 0
4:15 am 04:15 Clear 36 2.1 32 0.1 87 87 WNW 7 11 30.48 1032 10 16.0934 0 0
4:35 am 04:35 Clear 36 2 32 0.2 88 88 WNW 7 11 30.48 1032 10 16.0934 0 0
4:55 am 04:55 Clear 35 1.8 32 0.1 89 89 WNW 8 13 30.48 1032 10 16.0934 0 0
5:15 am 05:15 Clear 35 1.7 32 0 89 89 W 5 7 30.48 1032 10 16.0934 0 0
5:35 am 05:35 Clear 34 1 32 -0.1 92 92 NW 6 9 30.5 1033 10 16.0934 0 0
5:55 am 05:55 Clear 34 1.2 32 0 92 92 W 6 9 30.48 1032 10 16.0934 0 0
6:15 am 06:15 Clear 34 1.3 32 0 91 91 WNW 6 9 30.53 1034 10 16.0934 0 0
6:35 am 06:35 Clear 34 1.1 32 -0.1 92 92 WNW 6 9 30.53 1034 10 16.0934 0 0
6:55 am 06:55 Clear 34 1.1 32 0 92 92 WNW 6 9 30.53 1034 10 16.0934 0 0
7:15 am 07:15 Clear 34 1 32 -0.1 92 92 WNW 8 13 30.53 1034 10 16.0934 0 0
7:35 am 07:35 Clear 34 1 32 -0.2 92 92 WNW 5 7 30.53 1034 10 16.0934 0 0
7:55 am 07:55 Sunny 33 0.7 32 -0.2 94 94 W 6 9 30.53 1034 10 16.0934 0 0
8:15 am 08:15 Sunny 34 0.9 32 -0.1 93 93 WNW 3 6 30.56 1035 10 16.0934 0 0
8:35 am 08:35 Sunny 34 1.3 32 0.1 92 92 WNW 3 6 30.56 1035 10 16.0934 0 0
8:55 am 08:55 Sunny 37 2.5 34 1 90 90 W 5 7 30.53 1034 10 16.0934 0 0
9:15 am 09:15 Sunny 39 4 35 1.8 86 86 WNW 7 11 30.53 1034 10 16.0934 0 0
9:35 am 09:35 Sunny 41 5.2 37 2.5 83 83 W 7 11 30.53 1034 10 16.0934 0 0
9:55 am 09:55 Sunny 44 6.6 38 3.3 80 80 W 7 11 30.53 1034 10 16.0934 0 0
10:15 am 10:15 Sunny 47 8.1 39 3.9 75 75 WNW 6 9 30.5 1033 10 16.0934 0 0
10:35 am 10:35 Sunny 50 9.9 40 4.7 70 70 W 6 9 30.5 1033 10 16.0934 0 0
10:55 am 10:55 Sunny 53 11.4 41 5 65 65 NW 5 7 30.48 1032 10 16.0934 0 0
11:15 am 11:15 Sunny 55 12.8 42 5.4 61 61 Calm 30.48 1032 10 16.0934 0 0
11:35 am 11:35 Sunny 58 14.5 41 5.2 54 54 Calm 30.45 1031 10 16.0934 0 0
11:55 am 11:55 Sunny 60 15.8 37 2.8 42 42 Calm 30.45 1031 10 16.0934 0 0
12:15 pm 12:15 Sunny 62 16.5 37 2.5 39 39 Calm 30.45 1031 10 16.0934 0 0
12:35 pm 12:35 Sunny 63 17.1 37 2.5 38 38 Calm 30.45 1031 10 16.0934 0 0
12:55 pm 12:55 Sunny 62 16.8 36 2.1 37 37 Calm 30.45 1031 10 16.0934 0 0
1:15 pm 13:15 Sunny 64 17.8 35 1.9 35 35 Calm 30.39 1029 10 16.0934 0 0
1:35 pm 13:35 Sunny 64 17.7 35 1.6 34 34 Calm 30.39 1029 10 16.0934 0 0
1:55 pm 13:55 Sunny 65 18.2 35 1.7 33 33 Calm 30.36 1028 10 16.0934 0 0
2:15 pm 14:15 Sunny 66 18.8 36 2 33 33 NW 3 6 30.36 1028 10 16.0934 0 0
2:35 pm 14:35 Sunny 65 18.4 34 1.2 32 32 Calm 30.36 1028 10 16.0934 0 0
2:55 pm 14:55 Sunny 67 19.2 35 1.8 31 31 Calm 30.36 1028 10 16.0934 0 0
3:15 pm 15:15 Sunny 66 19 35 1.7 32 32 Calm 30.33 1027 10 16.0934 0 0
3:35 pm 15:35 Sunny 67 19.7 36 2.4 32 32 Calm 30.33 1027 10 16.0934 0 0
3:55 pm 15:55 Sunny 67 19.7 36 2.2 31 31 SW 6 9 30.33 1027 10 16.0934 0 0
4:15 pm 16:15 Sunny 67 19.7 36 2.1 31 31 Calm 30.33 1027 10 16.0934 0 0
4:35 pm 16:35 Sunny 68 19.8 36 2.1 31 31 Calm 30.33 1027 10 16.0934 0 0
4:55 pm 16:55 Hazy 68 19.8 36 2.3 31 31 SSE 5 7 30.33 1027 4 6.43736 0 0
5:15 pm 17:15 Sunny 68 20 37 2.6 32 32 SSW 7 11 30.33 1027 7 11.26538 0 0
5:35 pm 17:35 Hazy 67 19.5 37 2.5 32 32 Calm 30.33 1027 3 4.82802 0 0
5:55 pm 17:55 Sunny 66 19 38 3.2 35 35 S 6 9 30.33 1027 10 16.0934 0 0
6:15 pm 18:15 Sunny 63 17.4 39 4.1 41 41 S 6 9 30.33 1027 10 16.0934 0 0
6:35 pm 18:35 Sunny 60 15.3 39 3.8 46 46 SSW 5 7 30.36 1028 10 16.0934 0 0
6:55 pm 18:55 Sunny 57 14.1 38 3.5 49 49 S 6 9 30.36 1028 10 16.0934 0 0
7:15 pm 19:15 Clear 58 14.2 37 2.8 46 46 S 5 7 30.36 1028 10 16.0934 0 0
7:35 pm 19:35 Clear 56 13.4 37 2.7 49 49 SSW 5 7 30.39 1029 10 16.0934 0 0
7:55 pm 19:55 Clear 54 12.1 37 2.8 53 53 S 5 7 30.39 1029 10 16.0934 0 0
8:15 pm 20:15 Clear 51 10.8 37 2.6 57 57 S 5 7 30.39 1029 10 16.0934 0 0
8:35 pm 20:35 Hazy 52 11 38 3.3 59 59 S 5 7 30.42 1030 2 3.21868 0 0
8:55 pm 20:55 Clear 49 9.7 38 3.1 64 64 S 6 9 30.45 1031 10 16.0934 0 0
9:15 pm 21:15 Clear 49 9.2 37 3 65 65 S 6 9 30.45 1031 10 16.0934 0 0
9:35 pm 21:35 Clear 48 8.7 37 2.9 67 67 SSE 3 6 30.45 1031 7 11.26538 0 0
9:55 pm 21:55 Hazy 48 8.7 37 2.6 66 66 S 6 9 30.45 1031 5 8.0467 0 0
10:15 pm 22:15 Clear 46 7.5 37 2.5 71 71 S 5 7 30.45 1031 7 11.26538 0 0
10:35 pm 22:35 Clear 47 8.5 37 2.5 66 66 S 8 13 30.45 1031 10 16.0934 0 0
10:55 pm 22:55 Clear 45 7.3 37 2.6 72 72 S 7 11 30.48 1032 10 16.0934 0 0
11:15 pm 23:15 Clear 46 7.7 38 3.1 73 73 S 8 13 30.45 1031 10 16.0934 0 0
11:35 pm 23:35 Clear 46 7.6 37 3 73 73 S 7 11 30.45 1031 10 16.0934 0 0
11:55 pm 23:55 Clear 46 7.6 37 2.7 71 71 S 5 7 30.45 1031 10 16.0934 0 0

Powered by AerisWeather